Tracking 25963 objects as of 12-Aug-2022
HD Live streaming from Space Station
objects crossing your sky now

RESURS O1 DEB

Track RESURS O1 DEB now!
10-day predictions


NORAD ID: 48504
Int'l Code: 1994-074EF
Perigee: 598.8 km
Apogee: 604.4 km
Inclination: 97.9 °
Period: 96.6 minutes
Semi major axis: 6972 km
RCS: Unknown
Launch date: November 4, 1994
Source: Commonwealth of Independent States (former USSR) (CIS)
Launch site: TYURATAM MISSILE AND SPACE COMPLEX (TTMTR)

Note: This is SATELLITE DEBRIS
aabbcc
Your satellite tracking list
Your tracking list is empty




NASA's NSSDC Master Catalog

Two Line Element Set (TLE):
1 48504U 94074EF  22222.09349165  .00034835  00000-0  35034-2 0  9992
2 48504  97.9124 272.7240 0004040 117.1935 242.9695 14.91108505 76604
Source of the keplerian elements: AFSPC